Darstellungsparameter: Aktuell verwendete Einstellungen:
Skalierung der Graphiken ... ?
xyx+y,   Skalierungsfaktor:      Skalierung: Modus: x, Faktor: 1
Darstellungszeitraum ... ?
Vom - - bis: - -   Zeitraum: 09.05.2015 - 11.05.2015
Min/Max/Avg-Anzeige ... ?
Zeige MMA aktuell
Zeige MMA Monat
Zeige MMA alles
Zeige --A aktuell
Zeige --A Monat
Zeige --A alles
Keine MMA-Anzeige
MMA:
Average (ber die Originaldaten)
MMA-Basis: 09.05.2015 - 11.05.2015
Quicknavigation für Darstellung... ?
Tage:      1T, 2T, 3T, 5T -1T -2T -3T -5T +1T +2T +3T +5T
Wochen: 1W, 2W, 3W -1W -2W -3W +1W +2W +3W
Monate: 1M, 3M, 6M -1M -3M -6M +1M +3M +6M
Jahre:    1J, 3J, 5J, 10J -1J -3J -5J -10J +1J +3J +5J +10J
Nutze für die Darstellung ... ?
Originaldaten oder Mittelwerte auf ...
Stundenbasis Tagesbasis Wochenbasis
Monatsbasis Jahresbasis      Datenbasis: Original-Daten
Darstellen als:
Statistik (Auto) Statistik J:M      Darstellung:
Zur Graphik,    zurück zur Übersicht aller Sensoren.
 
Tabellarische Datenbersicht: ?
 
Sensor: Nr:Datum:Temp:Abs-Feuchte:Windchill:Wind:
Aussen-T/F 1 09-05-2015 00:00:00 13.1 C 9.13 g/m*3 13.1 C 0 km/h
2 09-05-2015 00:05:00 13 C 9.07 g/m*3 13 C 0 km/h
3 09-05-2015 00:10:00 12.8 C 9.07 g/m*3 12.8 C 0 km/h
4 09-05-2015 00:15:00 12.7 C 9.02 g/m*3 12.7 C 0 km/h
5 09-05-2015 00:20:00 12.5 C 8.91 g/m*3 12.5 C 0 km/h
6 09-05-2015 00:25:00 12.4 C 8.96 g/m*3 12.4 C 0 km/h
7 09-05-2015 00:30:00 12.3 C 8.9 g/m*3 12.3 C 0 km/h
8 09-05-2015 00:35:00 12.1 C 8.79 g/m*3 12.1 C 0 km/h
9 09-05-2015 00:40:00 12.1 C 8.9 g/m*3 12.1 C 0 km/h
10 09-05-2015 00:45:00 11.9 C 8.79 g/m*3 11.9 C 0 km/h
11 09-05-2015 00:50:00 11.9 C 8.68 g/m*3 11.9 C 0 km/h
12 09-05-2015 00:55:00 11.8 C 8.63 g/m*3 11.8 C 0 km/h
13 09-05-2015 01:00:00 11.7 C 8.68 g/m*3 11.7 C 0 km/h
14 09-05-2015 01:05:00 11.6 C 8.63 g/m*3 11.6 C 0 km/h
15 09-05-2015 01:10:00 11.4 C 8.52 g/m*3 11.4 C 0 km/h
16 09-05-2015 01:15:00 11.3 C 8.47 g/m*3 11.3 C 0 km/h
17 09-05-2015 01:20:00 11.3 C 8.57 g/m*3 11.3 C 0 km/h
18 09-05-2015 01:25:00 11.2 C 8.51 g/m*3 11.2 C 0 km/h
19 09-05-2015 01:30:00 11.1 C 8.46 g/m*3 11.1 C 0 km/h
20 09-05-2015 01:35:00 11.1 C 8.46 g/m*3 11.1 C 0 km/h
21 09-05-2015 01:40:00 11.1 C 8.46 g/m*3 11.1 C 0 km/h
22 09-05-2015 01:45:00 11.1 C 8.46 g/m*3 11.1 C 0 km/h
23 09-05-2015 01:50:00 11.1 C 8.46 g/m*3 11.1 C 0 km/h
24 09-05-2015 01:55:00 11.1 C 8.46 g/m*3 11.1 C 0 km/h
25 09-05-2015 02:00:00 11.1 C 8.56 g/m*3 11.1 C 0 km/h
Sensor: Nr:Datum:Temp:Abs-Feuchte:Windchill:Wind:
Aussen-T/F 26 09-05-2015 02:05:00 11.1 C 8.56 g/m*3 11.1 C 0 km/h
27 09-05-2015 02:10:00 11.1 C 8.56 g/m*3 11.1 C 0 km/h
28 09-05-2015 02:15:00 11.2 C 8.62 g/m*3 11.2 C 0 km/h
29 09-05-2015 02:20:00 11.1 C 8.56 g/m*3 11.1 C 0 km/h
30 09-05-2015 02:25:00 11 C 8.51 g/m*3 11 C 0 km/h
31 09-05-2015 02:30:00 10.9 C 8.55 g/m*3 10.9 C 0 km/h
32 09-05-2015 02:35:00 10.9 C 8.55 g/m*3 10.9 C 0 km/h
33 09-05-2015 02:40:00 10.8 C 8.5 g/m*3 10.8 C 0 km/h
34 09-05-2015 02:45:00 10.8 C 8.5 g/m*3 10.8 C 0 km/h
35 09-05-2015 02:50:00 10.8 C 8.5 g/m*3 10.8 C 0 km/h
36 09-05-2015 02:55:00 10.8 C 8.6 g/m*3 10.8 C 0 km/h
37 09-05-2015 03:00:00 10.8 C 8.6 g/m*3 10.8 C 0 km/h
38 09-05-2015 03:05:00 10.8 C 8.6 g/m*3 10.8 C 0 km/h
39 09-05-2015 03:10:00 10.8 C 8.7 g/m*3 10.8 C 0 km/h
40 09-05-2015 03:15:00 10.8 C 8.7 g/m*3 10.8 C 0 km/h
41 09-05-2015 03:20:00 10.8 C 8.7 g/m*3 10.8 C 0 km/h
42 09-05-2015 03:25:00 10.8 C 8.7 g/m*3 10.8 C 0 km/h
43 09-05-2015 03:30:00 10.9 C 8.75 g/m*3 10.9 C 0 km/h
44 09-05-2015 03:35:00 10.9 C 8.75 g/m*3 10.9 C 0 km/h
45 09-05-2015 03:40:00 10.9 C 8.65 g/m*3 10.9 C 0 km/h
46 09-05-2015 03:45:00 10.8 C 8.6 g/m*3 10.8 C 0 km/h
47 09-05-2015 03:50:00 10.8 C 8.6 g/m*3 10.8 C 0 km/h
48 09-05-2015 03:55:00 10.8 C 8.6 g/m*3 10.8 C 0 km/h
49 09-05-2015 04:00:00 10.8 C 8.7 g/m*3 10.8 C 0 km/h
50 09-05-2015 04:05:00 10.8 C 8.7 g/m*3 10.8 C 3.2 km/h
Sensor: Nr:Datum:Temp:Abs-Feuchte:Windchill:Wind:
Aussen-T/F 51 09-05-2015 04:10:00 10.9 C 8.75 g/m*3 10.9 C 3.2 km/h
52 09-05-2015 04:15:00 10.8 C 8.6 g/m*3 10.8 C 1.6 km/h
53 09-05-2015 04:20:00 10.8 C 8.7 g/m*3 10.8 C 0 km/h
54 09-05-2015 04:25:00 10.9 C 8.65 g/m*3 10.9 C 0 km/h
55 09-05-2015 04:30:00 10.9 C 8.65 g/m*3 10.9 C 0 km/h
56 09-05-2015 04:35:00 10.9 C 8.65 g/m*3 10.9 C 0 km/h
57 09-05-2015 04:40:00 10.8 C 8.6 g/m*3 10.8 C 0 km/h
58 09-05-2015 04:45:00 10.7 C 8.55 g/m*3 10.7 C 0 km/h
59 09-05-2015 04:50:00 10.6 C 8.59 g/m*3 10.6 C 0 km/h
60 09-05-2015 04:55:00 10.6 C 8.59 g/m*3 10.6 C 0 km/h
61 09-05-2015 05:00:00 10.6 C 8.59 g/m*3 10.6 C 0 km/h
62 09-05-2015 05:05:00 10.6 C 8.59 g/m*3 10.6 C 0 km/h
63 09-05-2015 05:10:00 10.6 C 8.69 g/m*3 10.6 C 0 km/h
64 09-05-2015 05:15:00 10.6 C 8.59 g/m*3 10.6 C 0 km/h
65 09-05-2015 05:20:00 10.6 C 8.59 g/m*3 10.6 C 0 km/h
66 09-05-2015 05:25:00 10.6 C 8.69 g/m*3 10.6 C 0 km/h
67 09-05-2015 05:30:00 10.5 C 8.63 g/m*3 10.5 C 0 km/h
68 09-05-2015 05:35:00 10.6 C 8.78 g/m*3 10.6 C 0 km/h
69 09-05-2015 05:40:00 10.6 C 8.69 g/m*3 10.6 C 0 km/h
70 09-05-2015 05:45:00 10.6 C 8.78 g/m*3 10.6 C 0 km/h
71 09-05-2015 05:50:00 10.6 C 8.78 g/m*3 10.6 C 0 km/h
72 09-05-2015 05:55:00 10.6 C 8.78 g/m*3 10.6 C 0 km/h
73 09-05-2015 06:00:00 10.6 C 8.78 g/m*3 10.6 C 0 km/h
74 09-05-2015 06:05:00 10.7 C 8.84 g/m*3 10.7 C 0 km/h
75 09-05-2015 06:10:00 10.7 C 8.94 g/m*3 10.7 C 0 km/h
Sensor: Nr:Datum:Temp:Abs-Feuchte:Windchill:Wind:
Aussen-T/F 76 09-05-2015 06:15:00 10.7 C 8.94 g/m*3 10.7 C 0 km/h
77 09-05-2015 06:20:00 10.7 C 8.94 g/m*3 10.7 C 0 km/h
78 09-05-2015 06:25:00 10.7 C 8.94 g/m*3 10.7 C 0 km/h
79 09-05-2015 06:30:00 10.7 C 8.94 g/m*3 10.7 C 0 km/h
80 09-05-2015 06:35:00 10.7 C 8.94 g/m*3 10.7 C 0 km/h
81 09-05-2015 06:40:00 10.7 C 8.94 g/m*3 10.7 C 0 km/h
82 09-05-2015 06:45:00 10.8 C 8.99 g/m*3 10.8 C 0 km/h
83 09-05-2015 06:50:00 10.8 C 8.99 g/m*3 10.8 C 0 km/h
84 09-05-2015 06:55:00 10.8 C 8.99 g/m*3 10.8 C 0 km/h
85 09-05-2015 07:00:00 10.9 C 9.05 g/m*3 10.9 C 0 km/h
86 09-05-2015 07:05:00 11 C 9.11 g/m*3 11 C 0 km/h
87 09-05-2015 07:10:00 11.2 C 9.33 g/m*3 11.2 C 0 km/h
88 09-05-2015 07:15:00 11.3 C 9.28 g/m*3 11.3 C 0 km/h
89 09-05-2015 07:20:00 11.6 C 9.46 g/m*3 11.6 C 3.2 km/h
90 09-05-2015 07:25:00 11.8 C 9.58 g/m*3 11.8 C 4.8 km/h
91 09-05-2015 07:30:00 12.2 C 9.71 g/m*3 12.2 C 9.7 km/h
92 09-05-2015 07:35:00 12.5 C 9.89 g/m*3 12.5 C 1.6 km/h
93 09-05-2015 07:40:00 12.8 C 9.97 g/m*3 12.8 C 8.1 km/h
94 09-05-2015 07:45:00 13.1 C 10.04 g/m*3 13.1 C 4.8 km/h
95 09-05-2015 07:50:00 13.4 C 10.11 g/m*3 13.4 C 6.4 km/h
96 09-05-2015 07:55:00 13.6 C 10.24 g/m*3 13.6 C 3.2 km/h
97 09-05-2015 08:00:00 13.8 C 10.25 g/m*3 13.8 C 9.7 km/h
98 09-05-2015 08:05:00 14 C 10.37 g/m*3 14 C 4.8 km/h
99 09-05-2015 08:10:00 14.2 C 10.38 g/m*3 14.2 C 6.4 km/h
100 09-05-2015 08:15:00 14.3 C 10.44 g/m*3 14.3 C 8.1 km/h
Sensor: Nr:Datum:Temp:Abs-Feuchte:Windchill:Wind:
Aussen-T/F 101 09-05-2015 08:20:00 14.5 C 10.57 g/m*3 14.5 C 8.1 km/h
102 09-05-2015 08:25:00 14.8 C 10.64 g/m*3 14.8 C 8.1 km/h
103 09-05-2015 08:30:00 15.2 C 10.77 g/m*3 15.2 C 12.9 km/h
104 09-05-2015 08:35:00 15.6 C 10.91 g/m*3 15.6 C 11.3 km/h
105 09-05-2015 08:40:00 15.7 C 10.7 g/m*3 15.7 C 11.3 km/h
106 09-05-2015 08:45:00 15.9 C 10.83 g/m*3 15.9 C 14.5 km/h
107 09-05-2015 08:50:00 15.9 C 10.7 g/m*3 15.9 C 9.7 km/h
108 09-05-2015 08:55:00 15.8 C 10.77 g/m*3 15.8 C 11.3 km/h
109 09-05-2015 09:00:00 15.8 C 10.77 g/m*3 15.8 C 12.9 km/h
110 09-05-2015 09:05:00 15.7 C 10.7 g/m*3 15.7 C 8.1 km/h
111 09-05-2015 09:10:00 15.8 C 10.77 g/m*3 15.8 C 6.4 km/h
112 09-05-2015 09:15:00 15.8 C 10.77 g/m*3 15.8 C 8.1 km/h
113 09-05-2015 09:20:00 15.8 C 10.77 g/m*3 15.8 C 8.1 km/h
114 09-05-2015 09:25:00 15.9 C 10.83 g/m*3 15.9 C 3.2 km/h
115 09-05-2015 09:30:00 16.1 C 10.97 g/m*3 16.1 C 12.9 km/h
116 09-05-2015 09:35:00 16.2 C 10.89 g/m*3 16.2 C 9.7 km/h
117 09-05-2015 09:40:00 16.3 C 10.96 g/m*3 16.3 C 11.3 km/h
118 09-05-2015 09:45:00 16.4 C 11.03 g/m*3 16.4 C 12.9 km/h
119 09-05-2015 09:50:00 16.6 C 11.02 g/m*3 16.6 C 11.3 km/h
120 09-05-2015 09:55:00 16.6 C 11.02 g/m*3 16.6 C 12.9 km/h
121 09-05-2015 10:00:00 16.6 C 11.02 g/m*3 16.6 C 8.1 km/h
122 09-05-2015 10:05:00 16.6 C 11.02 g/m*3 16.6 C 8.1 km/h
123 09-05-2015 10:10:00 16.7 C 11.08 g/m*3 16.7 C 11.3 km/h
124 09-05-2015 10:15:00 16.7 C 11.08 g/m*3 16.7 C 9.7 km/h
125 09-05-2015 10:20:00 16.7 C 10.94 g/m*3 16.7 C 14.5 km/h
Sensor: Nr:Datum:Temp:Abs-Feuchte:Windchill:Wind:
Aussen-T/F 126 09-05-2015 10:25:00 16.7 C 10.94 g/m*3 16.7 C 16.1 km/h
127 09-05-2015 10:30:00 16.8 C 11.01 g/m*3 16.8 C 16.1 km/h
128 09-05-2015 10:35:00 16.9 C 11.08 g/m*3 16.9 C 12.9 km/h
129 09-05-2015 10:40:00 17.1 C 11.06 g/m*3 17.1 C 17.7 km/h
130 09-05-2015 10:45:00 17.3 C 11.05 g/m*3 17.3 C 16.1 km/h
131 09-05-2015 10:50:00 17.4 C 11.26 g/m*3 17.4 C 9.7 km/h
132 09-05-2015 10:55:00 17.7 C 11.32 g/m*3 17.7 C 12.9 km/h
133 09-05-2015 11:00:00 17.9 C 11.3 g/m*3 17.9 C 16.1 km/h
134 09-05-2015 11:05:00 18.1 C 11.12 g/m*3 18.1 C 14.5 km/h
135 09-05-2015 11:10:00 18.3 C 11.26 g/m*3 18.3 C 16.1 km/h
136 09-05-2015 11:15:00 18.6 C 11.3 g/m*3 18.6 C 16.1 km/h
137 09-05-2015 11:20:00 18.7 C 11.37 g/m*3 18.7 C 6.4 km/h
138 09-05-2015 11:25:00 18.8 C 11.11 g/m*3 18.8 C 9.7 km/h
139 09-05-2015 11:30:00 18.8 C 10.95 g/m*3 18.8 C 16.1 km/h
140 09-05-2015 11:35:00 18.4 C 10.85 g/m*3 18.4 C 17.7 km/h
141 09-05-2015 11:40:00 18.1 C 10.66 g/m*3 18.1 C 14.5 km/h
142 09-05-2015 11:45:00 17.8 C 10.62 g/m*3 17.8 C 17.7 km/h
143 09-05-2015 11:50:00 17.7 C 10.41 g/m*3 17.7 C 11.3 km/h
144 09-05-2015 11:55:00 17.7 C 10.56 g/m*3 17.7 C 9.7 km/h
145 09-05-2015 12:00:00 17.9 C 10.69 g/m*3 17.9 C 8.1 km/h
146 09-05-2015 12:05:00 18.3 C 10.63 g/m*3 18.3 C 11.3 km/h
147 09-05-2015 12:10:00 18.6 C 10.66 g/m*3 18.6 C 20.9 km/h
148 09-05-2015 12:15:00 18.5 C 10.76 g/m*3 18.5 C 20.9 km/h
149 09-05-2015 12:20:00 18.3 C 10.48 g/m*3 18.3 C 14.5 km/h
150 09-05-2015 12:25:00 18.3 C 10.63 g/m*3 18.3 C 19.3 km/h
Sensor: Nr:Datum:Temp:Abs-Feuchte:Windchill:Wind:
Aussen-T/F 151 09-05-2015 12:30:00 18.3 C 10.63 g/m*3 18.3 C 12.9 km/h
152 09-05-2015 12:35:00 18.2 C 10.41 g/m*3 18.2 C 17.7 km/h
153 09-05-2015 12:40:00 18.2 C 10.57 g/m*3 18.2 C 12.9 km/h
154 09-05-2015 12:45:00 18.4 C 10.54 g/m*3 18.4 C 8.1 km/h
155 09-05-2015 12:50:00 18.7 C 10.73 g/m*3 18.7 C 9.7 km/h
156 09-05-2015 12:55:00 18.9 C 10.69 g/m*3 18.9 C 16.1 km/h
157 09-05-2015 13:00:00 18.9 C 10.53 g/m*3 18.9 C 12.9 km/h
158 09-05-2015 13:05:00 18.8 C 10.47 g/m*3 18.8 C 11.3 km/h
159 09-05-2015 13:10:00 18.8 C 10.63 g/m*3 18.8 C 16.1 km/h
160 09-05-2015 13:15:00 18.9 C 10.53 g/m*3 18.9 C 16.1 km/h
161 09-05-2015 13:20:00 19.2 C 10.72 g/m*3 19.2 C 9.7 km/h
162 09-05-2015 13:25:00 19.4 C 10.18 g/m*3 19.4 C 16.1 km/h
163 09-05-2015 13:30:00 19.6 C 10.13 g/m*3 19.6 C 20.9 km/h
164 09-05-2015 13:35:00 19.6 C 10.3 g/m*3 19.6 C 17.7 km/h
165 09-05-2015 13:40:00 19.9 C 10.48 g/m*3 19.9 C 14.5 km/h
166 09-05-2015 13:45:00 20.3 C 10.38 g/m*3 20.3 C 16.1 km/h
167 09-05-2015 13:50:00 20.5 C 10.14 g/m*3 20.5 C 14.5 km/h
168 09-05-2015 13:55:00 20.8 C 10.68 g/m*3 20.8 C 16.1 km/h
169 09-05-2015 14:00:00 20.9 C 10.2 g/m*3 20.9 C 14.5 km/h
170 09-05-2015 14:05:00 20.7 C 10.26 g/m*3 20.7 C 11.3 km/h
171 09-05-2015 14:10:00 20.7 C 10.08 g/m*3 20.7 C 17.7 km/h
172 09-05-2015 14:15:00 20.7 C 9.9 g/m*3 20.7 C 22.5 km/h
173 09-05-2015 14:20:00 21.2 C 10.01 g/m*3 21.2 C 19.3 km/h
174 09-05-2015 14:25:00 21.4 C 9.75 g/m*3 21.4 C 20.9 km/h
175 09-05-2015 14:30:00 21.5 C 9.62 g/m*3 21.5 C 17.7 km/h
Sensor: Nr:Datum:Temp:Abs-Feuchte:Windchill:Wind:
Aussen-T/F 176 09-05-2015 14:35:00 21.6 C 9.67 g/m*3 21.6 C 17.7 km/h
177 09-05-2015 14:40:00 21.4 C 9.75 g/m*3 21.4 C 20.9 km/h
178 09-05-2015 14:45:00 21.7 C 9.73 g/m*3 21.7 C 19.3 km/h
179 09-05-2015 14:50:00 21.8 C 9.4 g/m*3 21.8 C 19.3 km/h
180 09-05-2015 14:55:00 21.7 C 9.54 g/m*3 21.7 C 20.9 km/h
181 09-05-2015 15:00:00 21.6 C 9.29 g/m*3 21.6 C 11.3 km/h
182 09-05-2015 15:05:00 21.7 C 9.35 g/m*3 21.7 C 16.1 km/h
183 09-05-2015 15:10:00 22 C 9.51 g/m*3 22 C 20.9 km/h
184 09-05-2015 15:15:00 22.4 C 9.53 g/m*3 22.4 C 16.1 km/h
185 09-05-2015 15:20:00 22.3 C 9.08 g/m*3 22.3 C 19.3 km/h
186 09-05-2015 15:25:00 22 C 9.12 g/m*3 22 C 17.7 km/h
187 09-05-2015 15:30:00 21.6 C 8.91 g/m*3 21.6 C 17.7 km/h
188 09-05-2015 15:35:00 21.4 C 9.37 g/m*3 21.4 C 12.9 km/h
189 09-05-2015 15:40:00 21.6 C 9.1 g/m*3 21.6 C 11.3 km/h
190 09-05-2015 15:45:00 21.6 C 9.1 g/m*3 21.6 C 16.1 km/h
191 09-05-2015 15:50:00 21.6 C 9.1 g/m*3 21.6 C 17.7 km/h
192 09-05-2015 15:55:00 21.8 C 9.4 g/m*3 21.8 C 16.1 km/h
193 09-05-2015 16:00:00 22.2 C 9.23 g/m*3 22.2 C 14.5 km/h
194 09-05-2015 16:05:00 21.9 C 9.07 g/m*3 21.9 C 19.3 km/h
195 09-05-2015 16:10:00 21.7 C 9.16 g/m*3 21.7 C 25.7 km/h
196 09-05-2015 16:15:00 21.5 C 8.86 g/m*3 21.5 C 22.5 km/h
197 09-05-2015 16:20:00 20.9 C 8.74 g/m*3 20.9 C 16.1 km/h
198 09-05-2015 16:25:00 20.7 C 8.82 g/m*3 20.7 C 11.3 km/h
199 09-05-2015 16:30:00 20.6 C 9.13 g/m*3 20.6 C 8.1 km/h
200 09-05-2015 16:35:00 20.8 C 9.05 g/m*3 20.8 C 11.3 km/h
Sensor: Nr:Datum:Temp:Abs-Feuchte:Windchill:Wind:
Aussen-T/F 201 09-05-2015 16:40:00 21.4 C 9.56 g/m*3 21.4 C 17.7 km/h
202 09-05-2015 16:45:00 21.8 C 9.21 g/m*3 21.8 C 27.4 km/h
203 09-05-2015 16:50:00 21.8 C 8.83 g/m*3 21.8 C 27.4 km/h
204 09-05-2015 16:55:00 21.3 C 8.95 g/m*3 21.3 C 17.7 km/h
205 09-05-2015 17:00:00 21.2 C 9.08 g/m*3 21.2 C 17.7 km/h
206 09-05-2015 17:05:00 21.1 C 9.03 g/m*3 21.1 C 16.1 km/h
207 09-05-2015 17:10:00 21.3 C 8.95 g/m*3 21.3 C 14.5 km/h
208 09-05-2015 17:15:00 21.3 C 8.95 g/m*3 21.3 C 14.5 km/h
209 09-05-2015 17:20:00 21 C 8.98 g/m*3 21 C 16.1 km/h
210 09-05-2015 17:25:00 20.6 C 8.77 g/m*3 20.6 C 17.7 km/h
211 09-05-2015 17:30:00 20.3 C 8.79 g/m*3 20.3 C 17.7 km/h
212 09-05-2015 17:35:00 20.2 C 8.92 g/m*3 20.2 C 14.5 km/h
213 09-05-2015 17:40:00 20.6 C 9.13 g/m*3 20.6 C 20.9 km/h
214 09-05-2015 17:45:00 20.8 C 9.05 g/m*3 20.8 C 12.9 km/h
215 09-05-2015 17:50:00 20.9 C 9.11 g/m*3 20.9 C 14.5 km/h
216 09-05-2015 17:55:00 21.3 C 8.95 g/m*3 21.3 C 22.5 km/h
217 09-05-2015 18:00:00 21.2 C 9.08 g/m*3 21.2 C 9.7 km/h
218 09-05-2015 18:05:00 20.7 C 8.64 g/m*3 20.7 C 16.1 km/h
219 09-05-2015 18:10:00 20.3 C 8.62 g/m*3 20.3 C 9.7 km/h
220 09-05-2015 18:15:00 20.3 C 8.44 g/m*3 20.3 C 17.7 km/h
221 09-05-2015 18:20:00 20.6 C 8.41 g/m*3 20.6 C 22.5 km/h
222 09-05-2015 18:25:00 20.6 C 8.41 g/m*3 20.6 C 12.9 km/h
223 09-05-2015 18:30:00 20.3 C 8.44 g/m*3 20.3 C 12.9 km/h
224 09-05-2015 18:35:00 20.1 C 8.34 g/m*3 20.1 C 16.1 km/h
225 09-05-2015 18:40:00 19.8 C 8.2 g/m*3 19.8 C 19.3 km/h
Sensor: Nr:Datum:Temp:Abs-Feuchte:Windchill:Wind:
Aussen-T/F 226 09-05-2015 18:45:00 19.7 C 8.32 g/m*3 19.7 C 14.5 km/h
227 09-05-2015 18:50:00 19.7 C 8.49 g/m*3 19.7 C 4.8 km/h
228 09-05-2015 18:55:00 19.6 C 8.44 g/m*3 19.6 C 8.1 km/h
229 09-05-2015 19:00:00 19.4 C 8.51 g/m*3 19.4 C 6.4 km/h
230 09-05-2015 19:05:00 19.3 C 8.46 g/m*3 19.3 C 8.1 km/h
231 09-05-2015 19:10:00 19.2 C 8.57 g/m*3 19.2 C 14.5 km/h
232 09-05-2015 19:15:00 18.9 C 9.56 g/m*3 18.9 C 11.3 km/h
233 09-05-2015 19:20:00 17.6 C 10.2 g/m*3 17.6 C 32.2 km/h
234 09-05-2015 19:25:00 15.6 C 10.24 g/m*3 15.6 C 19.3 km/h
235 09-05-2015 19:30:00 14.8 C 10.39 g/m*3 14.8 C 19.3 km/h
236 09-05-2015 19:35:00 14.4 C 10.51 g/m*3 14.4 C 8.1 km/h
237 09-05-2015 19:40:00 14.4 C 10.63 g/m*3 14.4 C 3.2 km/h
238 09-05-2015 19:45:00 14.3 C 10.81 g/m*3 14.3 C 3.2 km/h
239 09-05-2015 19:50:00 14.1 C 10.68 g/m*3 14.1 C 3.2 km/h
240 09-05-2015 19:55:00 14.1 C 10.92 g/m*3 14.1 C 3.2 km/h
241 09-05-2015 20:00:00 14.2 C 11.11 g/m*3 14.2 C 3.2 km/h
242 09-05-2015 20:05:00 14.3 C 11.06 g/m*3 14.3 C 3.2 km/h
243 09-05-2015 20:10:00 14.3 C 10.81 g/m*3 14.3 C 3.2 km/h
244 09-05-2015 20:15:00 14.4 C 10.75 g/m*3 14.4 C 3.2 km/h
245 09-05-2015 20:20:00 14.3 C 10.81 g/m*3 14.3 C 3.2 km/h
246 09-05-2015 20:25:00 14.3 C 10.81 g/m*3 14.3 C 3.2 km/h
247 09-05-2015 20:30:00 14.1 C 10.68 g/m*3 14.1 C 1.6 km/h
248 09-05-2015 20:35:00 13.9 C 10.67 g/m*3 13.9 C 3.2 km/h
249 09-05-2015 20:40:00 13.6 C 10.59 g/m*3 13.6 C 3.2 km/h
250 09-05-2015 20:45:00 13.6 C 10.59 g/m*3 13.6 C 1.6 km/h
Sensor: Nr:Datum:Temp:Abs-Feuchte:Windchill:Wind:
Aussen-T/F 251 09-05-2015 20:50:00 13.2 C 10.45 g/m*3 13.2 C 1.6 km/h
252 09-05-2015 20:55:00 13 C 10.43 g/m*3 13 C 3.2 km/h
253 09-05-2015 21:00:00 13 C 10.43 g/m*3 13 C 1.6 km/h
254 09-05-2015 21:05:00 13 C 10.43 g/m*3 13 C 1.6 km/h
255 09-05-2015 21:10:00 12.4 C 10.16 g/m*3 12.4 C 3.2 km/h
256 09-05-2015 21:15:00 12.3 C 10.1 g/m*3 12.3 C 3.2 km/h
257 09-05-2015 21:20:00 12.3 C 10.21 g/m*3 12.3 C 1.6 km/h
258 09-05-2015 21:25:00 12.3 C 10.21 g/m*3 12.3 C 1.6 km/h
259 09-05-2015 21:30:00 12.4 C 10.27 g/m*3 12.4 C 1.6 km/h
260 09-05-2015 21:35:00 12.4 C 10.27 g/m*3 12.4 C 1.6 km/h
261 09-05-2015 21:40:00 12.6 C 10.4 g/m*3 12.6 C 1.6 km/h
262 09-05-2015 21:45:00 12.6 C 10.4 g/m*3 12.6 C 1.6 km/h
263 09-05-2015 21:50:00 12.7 C 10.46 g/m*3 12.7 C 3.2 km/h
264 09-05-2015 21:55:00 12.6 C 10.4 g/m*3 12.6 C 1.6 km/h
265 09-05-2015 22:00:00 12.6 C 10.29 g/m*3 12.6 C 1.6 km/h
266 09-05-2015 22:05:00 12.5 C 10.22 g/m*3 12.5 C 1.6 km/h
267 09-05-2015 22:10:00 12.4 C 10.16 g/m*3 12.4 C 1.6 km/h
268 09-05-2015 22:15:00 12.3 C 10.1 g/m*3 12.3 C 3.2 km/h
269 09-05-2015 22:20:00 12.2 C 10.04 g/m*3 12.2 C 3.2 km/h
270 09-05-2015 22:25:00 12.1 C 9.87 g/m*3 12.1 C 3.2 km/h
271 09-05-2015 22:30:00 12.1 C 9.87 g/m*3 12.1 C 1.6 km/h
272 09-05-2015 22:35:00 12.1 C 9.87 g/m*3 12.1 C 1.6 km/h
273 09-05-2015 22:40:00 11.9 C 9.74 g/m*3 11.9 C 3.2 km/h
274 09-05-2015 22:45:00 11.8 C 9.68 g/m*3 11.8 C 3.2 km/h
275 09-05-2015 22:50:00 11.8 C 9.79 g/m*3 11.8 C 3.2 km/h
Sensor: Nr:Datum:Temp:Abs-Feuchte:Windchill:Wind:
Aussen-T/F 276 09-05-2015 22:55:00 11.7 C 9.73 g/m*3 11.7 C 4.8 km/h
277 09-05-2015 23:00:00 11.7 C 9.73 g/m*3 11.7 C 3.2 km/h
278 09-05-2015 23:05:00 11.7 C 9.73 g/m*3 11.7 C 3.2 km/h
279 09-05-2015 23:10:00 11.7 C 9.62 g/m*3 11.7 C 1.6 km/h
280 09-05-2015 23:15:00 11.6 C 9.56 g/m*3 11.6 C 3.2 km/h
281 09-05-2015 23:20:00 11.6 C 9.56 g/m*3 11.6 C 1.6 km/h
282 09-05-2015 23:25:00 11.6 C 9.56 g/m*3 11.6 C 0 km/h
283 09-05-2015 23:30:00 11.4 C 9.44 g/m*3 11.4 C 1.6 km/h
284 09-05-2015 23:35:00 11.4 C 9.55 g/m*3 11.4 C 1.6 km/h
285 09-05-2015 23:40:00 11.3 C 9.49 g/m*3 11.3 C 3.2 km/h
286 09-05-2015 23:45:00 11.3 C 9.38 g/m*3 11.3 C 3.2 km/h
287 09-05-2015 23:50:00 11.3 C 9.49 g/m*3 11.3 C 3.2 km/h
288 09-05-2015 23:55:00 11.4 C 9.44 g/m*3 11.4 C 4.8 km/h
289 10-05-2015 00:00:00 11.4 C 9.44 g/m*3 11.4 C 1.6 km/h
290 10-05-2015 00:05:00 11.3 C 9.38 g/m*3 11.3 C 1.6 km/h
291 10-05-2015 00:10:00 11.3 C 9.38 g/m*3 11.3 C 3.2 km/h
292 10-05-2015 00:15:00 11.3 C 9.38 g/m*3 11.3 C 3.2 km/h
293 10-05-2015 00:20:00 11.3 C 9.28 g/m*3 11.3 C 1.6 km/h
294 10-05-2015 00:25:00 11.2 C 9.33 g/m*3 11.2 C 1.6 km/h
295 10-05-2015 00:30:00 11.1 C 9.27 g/m*3 11.1 C 0 km/h
296 10-05-2015 00:35:00 10.9 C 9.15 g/m*3 10.9 C 0 km/h
297 10-05-2015 00:40:00 10.8 C 9.09 g/m*3 10.8 C 0 km/h
298 10-05-2015 00:45:00 10.7 C 9.13 g/m*3 10.7 C 0 km/h
299 10-05-2015 00:50:00 10.6 C 9.08 g/m*3 10.6 C 0 km/h
300 10-05-2015 00:55:00 10.4 C 8.96 g/m*3 10.4 C 0 km/h
Sensor: Nr:Datum:Temp:Abs-Feuchte:Windchill:Wind:
Aussen-T/F 301 10-05-2015 01:00:00 10.4 C 8.96 g/m*3 10.4 C 0 km/h
302 10-05-2015 01:05:00 10.4 C 8.96 g/m*3 10.4 C 0 km/h
303 10-05-2015 01:10:00 10.4 C 9.06 g/m*3 10.4 C 1.6 km/h
304 10-05-2015 01:15:00 10.4 C 9.06 g/m*3 10.4 C 1.6 km/h
305 10-05-2015 01:20:00 10.5 C 9.12 g/m*3 10.5 C 0 km/h
306 10-05-2015 01:25:00 10.5 C 9.02 g/m*3 10.5 C 1.6 km/h
307 10-05-2015 01:30:00 10.6 C 9.08 g/m*3 10.6 C 3.2 km/h
308 10-05-2015 01:35:00 10.8 C 9.19 g/m*3 10.8 C 1.6 km/h
309 10-05-2015 01:40:00 10.8 C 9.09 g/m*3 10.8 C 4.8 km/h
310 10-05-2015 01:45:00 10.8 C 9.09 g/m*3 10.8 C 3.2 km/h
311 10-05-2015 01:50:00 10.7 C 9.04 g/m*3 10.7 C 4.8 km/h
312 10-05-2015 01:55:00 10.7 C 9.04 g/m*3 10.7 C 1.6 km/h
313 10-05-2015 02:00:00 10.6 C 8.98 g/m*3 10.6 C 1.6 km/h
314 10-05-2015 02:05:00 10.6 C 8.98 g/m*3 10.6 C 1.6 km/h
315 10-05-2015 02:10:00 10.5 C 8.92 g/m*3 10.5 C 3.2 km/h
316 10-05-2015 02:15:00 10.4 C 8.87 g/m*3 10.4 C 0 km/h
317 10-05-2015 02:20:00 10.3 C 8.81 g/m*3 10.3 C 0 km/h
318 10-05-2015 02:25:00 10.3 C 8.91 g/m*3 10.3 C 0 km/h
319 10-05-2015 02:30:00 10.3 C 8.91 g/m*3 10.3 C 0 km/h
320 10-05-2015 02:35:00 10.2 C 8.85 g/m*3 10.2 C 1.6 km/h
321 10-05-2015 02:40:00 10.2 C 8.85 g/m*3 10.2 C 0 km/h
322 10-05-2015 02:45:00 10.1 C 8.79 g/m*3 10.1 C 0 km/h
323 10-05-2015 02:50:00 10.1 C 8.79 g/m*3 10.1 C 0 km/h
324 10-05-2015 02:55:00 10 C 8.74 g/m*3 10 C 0 km/h
325 10-05-2015 03:00:00 10 C 8.74 g/m*3 10 C 0 km/h
Sensor: Nr:Datum:Temp:Abs-Feuchte:Windchill:Wind:
Aussen-T/F 326 10-05-2015 03:05:00 9.9 C 8.68 g/m*3 9.9 C 1.6 km/h
327 10-05-2015 03:10:00 9.9 C 8.68 g/m*3 9.9 C 0 km/h
328 10-05-2015 03:15:00 9.9 C 8.68 g/m*3 9.9 C 0 km/h
329 10-05-2015 03:20:00 9.8 C 8.63 g/m*3 9.8 C 1.6 km/h
330 10-05-2015 03:25:00 9.8 C 8.63 g/m*3 9.8 C 0 km/h
331 10-05-2015 03:30:00 9.8 C 8.63 g/m*3 9.8 C 0 km/h
332 10-05-2015 03:35:00 9.8 C 8.72 g/m*3 9.8 C 0 km/h
333 10-05-2015 03:40:00 9.8 C 8.63 g/m*3 9.8 C 0 km/h
334 10-05-2015 03:45:00 9.8 C 8.63 g/m*3 9.8 C 1.6 km/h
335 10-05-2015 03:50:00 9.8 C 8.72 g/m*3 9.8 C 4.8 km/h
336 10-05-2015 03:55:00 9.8 C 8.72 g/m*3 9.8 C 3.2 km/h
337 10-05-2015 04:00:00 9.9 C 8.68 g/m*3 9.9 C 3.2 km/h
338 10-05-2015 04:05:00 9.9 C 8.68 g/m*3 9.9 C 4.8 km/h
339 10-05-2015 04:10:00 9.9 C 8.68 g/m*3 9.9 C 1.6 km/h
340 10-05-2015 04:15:00 10.1 C 8.7 g/m*3 9.48 C 6.4 km/h
341 10-05-2015 04:20:00 10.2 C 8.66 g/m*3 10.2 C 3.2 km/h
342 10-05-2015 04:25:00 10.3 C 8.62 g/m*3 10.3 C 1.6 km/h
343 10-05-2015 04:30:00 10.4 C 8.58 g/m*3 10.4 C 3.2 km/h
344 10-05-2015 04:35:00 10.4 C 8.48 g/m*3 10.4 C 3.2 km/h
345 10-05-2015 04:40:00 10.4 C 8.48 g/m*3 10.4 C 1.6 km/h
346 10-05-2015 04:45:00 10.4 C 8.48 g/m*3 10.4 C 3.2 km/h
347 10-05-2015 04:50:00 10.4 C 8.48 g/m*3 10.4 C 1.6 km/h
348 10-05-2015 04:55:00 10.3 C 8.43 g/m*3 10.3 C 3.2 km/h
349 10-05-2015 05:00:00 10.1 C 8.42 g/m*3 10.1 C 0 km/h
350 10-05-2015 05:05:00 9.9 C 8.31 g/m*3 9.9 C 0 km/h
Sensor: Nr:Datum:Temp:Abs-Feuchte:Windchill:Wind:
Aussen-T/F 351 10-05-2015 05:10:00 9.7 C 8.3 g/m*3 9.7 C 1.6 km/h
352 10-05-2015 05:15:00 9.6 C 8.34 g/m*3 9.6 C 1.6 km/h
353 10-05-2015 05:20:00 9.4 C 8.23 g/m*3 9.4 C 0 km/h
354 10-05-2015 05:25:00 9.3 C 8.18 g/m*3 9.3 C 0 km/h
355 10-05-2015 05:30:00 9.3 C 8.18 g/m*3 9.3 C 4.8 km/h
356 10-05-2015 05:35:00 9.3 C 8.18 g/m*3 9.3 C 3.2 km/h
357 10-05-2015 05:40:00 9.3 C 8.18 g/m*3 9.3 C 0 km/h
358 10-05-2015 05:45:00 9.2 C 8.22 g/m*3 9.2 C 1.6 km/h
359 10-05-2015 05:50:00 9.1 C 8.16 g/m*3 9.1 C 0 km/h
360 10-05-2015 05:55:00 9.1 C 8.16 g/m*3 9.1 C 4.8 km/h
361 10-05-2015 06:00:00 9 C 8.11 g/m*3 9 C 0 km/h
362 10-05-2015 06:05:00 8.9 C 8.15 g/m*3 8.9 C 0 km/h
363 10-05-2015 06:10:00 8.9 C 8.15 g/m*3 8.9 C 0 km/h
364 10-05-2015 06:15:00 9.1 C 8.25 g/m*3 9.1 C 0 km/h
365 10-05-2015 06:20:00 9.1 C 8.25 g/m*3 9.1 C 3.2 km/h
366 10-05-2015 06:25:00 9.2 C 8.3 g/m*3 9.2 C 1.6 km/h
367 10-05-2015 06:30:00 9.2 C 8.3 g/m*3 9.2 C 3.2 km/h
368 10-05-2015 06:35:00 9.3 C 8.36 g/m*3 9.3 C 3.2 km/h
369 10-05-2015 06:40:00 9.4 C 8.41 g/m*3 9.4 C 3.2 km/h
370 10-05-2015 06:45:00 9.4 C 8.41 g/m*3 9.4 C 1.6 km/h
371 10-05-2015 06:50:00 9.5 C 8.37 g/m*3 9.5 C 4.8 km/h
372 10-05-2015 06:55:00 9.6 C 8.43 g/m*3 8.91 C 6.4 km/h
373 10-05-2015 07:00:00 9.6 C 8.43 g/m*3 9.6 C 4.8 km/h
374 10-05-2015 07:05:00 9.7 C 8.48 g/m*3 9.7 C 3.2 km/h
375 10-05-2015 07:10:00 9.8 C 8.54 g/m*3 8.18 C 11.3 km/h
Sensor: Nr:Datum:Temp:Abs-Feuchte:Windchill:Wind:
Aussen-T/F 376 10-05-2015 07:15:00 9.9 C 8.5 g/m*3 9.9 C 4.8 km/h
377 10-05-2015 07:20:00 10.1 C 8.7 g/m*3 9.48 C 6.4 km/h
378 10-05-2015 07:25:00 10.2 C 8.66 g/m*3 9.22 C 8.1 km/h
379 10-05-2015 07:30:00 10.2 C 8.66 g/m*3 9.22 C 8.1 km/h
380 10-05-2015 07:35:00 10.3 C 8.71 g/m*3 9.72 C 6.4 km/h
381 10-05-2015 07:40:00 10.3 C 8.71 g/m*3 10.3 C 4.8 km/h
382 10-05-2015 07:45:00 10.4 C 8.67 g/m*3 10.4 C 4.8 km/h
383 10-05-2015 07:50:00 10.4 C 8.67 g/m*3 9.83 C 6.4 km/h
384 10-05-2015 07:55:00 10.5 C 8.83 g/m*3 10.5 C 4.8 km/h
385 10-05-2015 08:00:00 10.5 C 8.73 g/m*3 9.28 C 9.7 km/h
386 10-05-2015 08:05:00 10.6 C 8.78 g/m*3 9.14 C 11.3 km/h
387 10-05-2015 08:10:00 10.7 C 8.94 g/m*3 9.52 C 9.7 km/h
388 10-05-2015 08:15:00 10.8 C 8.99 g/m*3 10.29 C 6.4 km/h
389 10-05-2015 08:20:00 10.9 C 9.05 g/m*3 9.76 C 9.7 km/h
390 10-05-2015 08:25:00 11.1 C 9.07 g/m*3 11.1 C 9.7 km/h
391 10-05-2015 08:30:00 11.2 C 9.12 g/m*3 11.2 C 6.4 km/h
392 10-05-2015 08:35:00 11.4 C 9.24 g/m*3 11.4 C 8.1 km/h
393 10-05-2015 08:40:00 11.6 C 9.25 g/m*3 11.6 C 6.4 km/h
394 10-05-2015 08:45:00 11.7 C 9.31 g/m*3 11.7 C 8.1 km/h
395 10-05-2015 08:50:00 12 C 9.38 g/m*3 12 C 8.1 km/h
396 10-05-2015 08:55:00 12.2 C 9.5 g/m*3 12.2 C 8.1 km/h
397 10-05-2015 09:00:00 12.3 C 9.45 g/m*3 12.3 C 6.4 km/h
398 10-05-2015 09:05:00 12.3 C 9.45 g/m*3 12.3 C 6.4 km/h
399 10-05-2015 09:10:00 12.4 C 9.51 g/m*3 12.4 C 6.4 km/h
400 10-05-2015 09:15:00 12.4 C 9.4 g/m*3 12.4 C 4.8 km/h
Sensor: Nr:Datum:Temp:Abs-Feuchte:Windchill:Wind:
Aussen-T/F 401 10-05-2015 09:20:00 12.4 C 9.4 g/m*3 12.4 C 4.8 km/h
402 10-05-2015 09:25:00 12.6 C 9.51 g/m*3 12.6 C 4.8 km/h
403 10-05-2015 09:30:00 12.8 C 9.63 g/m*3 12.8 C 3.2 km/h
404 10-05-2015 09:35:00 12.9 C 9.58 g/m*3 12.9 C 3.2 km/h
405 10-05-2015 09:40:00 13.1 C 9.47 g/m*3 13.1 C 6.4 km/h
406 10-05-2015 09:45:00 13.2 C 9.42 g/m*3 13.2 C 6.4 km/h
407 10-05-2015 09:50:00 13.3 C 9.24 g/m*3 13.3 C 4.8 km/h
408 10-05-2015 09:55:00 13.3 C 9.01 g/m*3 13.3 C 1.6 km/h
409 10-05-2015 10:00:00 13.4 C 9.07 g/m*3 13.4 C 8.1 km/h
410 10-05-2015 10:05:00 13.7 C 9.12 g/m*3 13.7 C 9.7 km/h
411 10-05-2015 10:10:00 13.8 C 9.17 g/m*3 13.8 C 3.2 km/h
412 10-05-2015 10:15:00 14.1 C 9.47 g/m*3 14.1 C 4.8 km/h
413 10-05-2015 10:20:00 14.7 C 9.69 g/m*3 14.7 C 6.4 km/h
414 10-05-2015 10:25:00 14.9 C 9.18 g/m*3 14.9 C 6.4 km/h
415 10-05-2015 10:30:00 14.9 C 9.05 g/m*3 14.9 C 4.8 km/h
416 10-05-2015 10:35:00 14.9 C 9.18 g/m*3 14.9 C 4.8 km/h
417 10-05-2015 10:40:00 14.9 C 9.05 g/m*3 14.9 C 3.2 km/h
418 10-05-2015 10:45:00 14.9 C 8.92 g/m*3 14.9 C 0 km/h
419 10-05-2015 10:50:00 14.9 C 9.05 g/m*3 14.9 C 1.6 km/h
420 10-05-2015 10:55:00 14.9 C 9.18 g/m*3 14.9 C 9.7 km/h
421 10-05-2015 11:00:00 15.2 C 9.22 g/m*3 15.2 C 4.8 km/h
422 10-05-2015 11:05:00 15.4 C 9.33 g/m*3 15.4 C 4.8 km/h
423 10-05-2015 11:10:00 15.6 C 9.44 g/m*3 15.6 C 3.2 km/h
424 10-05-2015 11:15:00 15.9 C 9.75 g/m*3 15.9 C 6.4 km/h
425 10-05-2015 11:20:00 16.3 C 9.85 g/m*3 16.3 C 6.4 km/h
Sensor: Nr:Datum:Temp:Abs-Feuchte:Windchill:Wind:
Aussen-T/F 426 10-05-2015 11:25:00 16.6 C 9.46 g/m*3 16.6 C 6.4 km/h
427 10-05-2015 11:30:00 17.1 C 9.75 g/m*3 17.1 C 8.1 km/h
428 10-05-2015 11:35:00 17.2 C 9.52 g/m*3 17.2 C 8.1 km/h
429 10-05-2015 11:40:00 17.3 C 10.02 g/m*3 17.3 C 6.4 km/h
430 10-05-2015 11:45:00 17.4 C 10.23 g/m*3 17.4 C 6.4 km/h
431 10-05-2015 11:50:00 17.3 C 9.58 g/m*3 17.3 C 6.4 km/h
432 10-05-2015 11:55:00 17.1 C 9.61 g/m*3 17.1 C 8.1 km/h
433 10-05-2015 12:00:00 17.2 C 9.81 g/m*3 17.2 C 6.4 km/h
434 10-05-2015 12:05:00 17.1 C 9.61 g/m*3 17.1 C 6.4 km/h
435 10-05-2015 12:10:00 16.9 C 9.64 g/m*3 16.9 C 1.6 km/h
436 10-05-2015 12:15:00 16.8 C 9.72 g/m*3 16.8 C 4.8 km/h
437 10-05-2015 12:20:00 16.7 C 9.38 g/m*3 16.7 C 0 km/h
438 10-05-2015 12:25:00 16.7 C 9.66 g/m*3 16.7 C 3.2 km/h
439 10-05-2015 12:30:00 16.8 C 9.58 g/m*3 16.8 C 3.2 km/h
440 10-05-2015 12:35:00 17 C 9.69 g/m*3 17 C 1.6 km/h
441 10-05-2015 12:40:00 17 C 9.12 g/m*3 17 C 3.2 km/h
442 10-05-2015 12:45:00 16.9 C 9.21 g/m*3 16.9 C 4.8 km/h
443 10-05-2015 12:50:00 17 C 9.41 g/m*3 17 C 3.2 km/h
444 10-05-2015 12:55:00 17 C 9.26 g/m*3 17 C 1.6 km/h
445 10-05-2015 13:00:00 17.3 C 10.02 g/m*3 17.3 C 1.6 km/h
446 10-05-2015 13:05:00 17.8 C 10.02 g/m*3 17.8 C 6.4 km/h
447 10-05-2015 13:10:00 17.8 C 9.41 g/m*3 17.8 C 4.8 km/h
448 10-05-2015 13:15:00 17.7 C 9.2 g/m*3 17.7 C 1.6 km/h
449 10-05-2015 13:20:00 17.4 C 8.89 g/m*3 17.4 C 0 km/h
450 10-05-2015 13:25:00 17.3 C 9.58 g/m*3 17.3 C 0 km/h
Sensor: Nr:Datum:Temp:Abs-Feuchte:Windchill:Wind:
Aussen-T/F 451 10-05-2015 13:30:00 17.5 C 9.99 g/m*3 17.5 C 4.8 km/h
452 10-05-2015 13:35:00 18.2 C 10.1 g/m*3 18.2 C 4.8 km/h
453 10-05-2015 13:40:00 18.8 C 9.34 g/m*3 18.8 C 6.4 km/h
454 10-05-2015 13:45:00 19.1 C 10.33 g/m*3 19.1 C 6.4 km/h
455 10-05-2015 13:50:00 19.3 C 9.79 g/m*3 19.3 C 3.2 km/h
456 10-05-2015 13:55:00 19.4 C 9.34 g/m*3 19.4 C 6.4 km/h
457 10-05-2015 14:00:00 19.6 C 9.79 g/m*3 19.6 C 8.1 km/h
458 10-05-2015 14:05:00 19.6 C 9.12 g/m*3 19.6 C 4.8 km/h
459 10-05-2015 14:10:00 19.7 C 9.34 g/m*3 19.7 C 6.4 km/h
460 10-05-2015 14:15:00 20.1 C 9.56 g/m*3 20.1 C 6.4 km/h
461 10-05-2015 14:20:00 20.3 C 9.5 g/m*3 20.3 C 8.1 km/h
462 10-05-2015 14:25:00 20.4 C 9.02 g/m*3 20.4 C 4.8 km/h
463 10-05-2015 14:30:00 20.5 C 9.43 g/m*3 20.5 C 3.2 km/h
464 10-05-2015 14:35:00 20.6 C 9.49 g/m*3 20.6 C 11.3 km/h
465 10-05-2015 14:40:00 20.5 C 9.43 g/m*3 20.5 C 8.1 km/h
466 10-05-2015 14:45:00 20.6 C 9.49 g/m*3 20.6 C 8.1 km/h
467 10-05-2015 14:50:00 20.6 C 9.49 g/m*3 20.6 C 8.1 km/h
468 10-05-2015 14:55:00 20.7 C 9.54 g/m*3 20.7 C 4.8 km/h
469 10-05-2015 15:00:00 20.9 C 9.83 g/m*3 20.9 C 9.7 km/h
470 10-05-2015 15:05:00 21.1 C 10.5 g/m*3 21.1 C 6.4 km/h
471 10-05-2015 15:10:00 21.1 C 9.03 g/m*3 21.1 C 4.8 km/h
472 10-05-2015 15:15:00 21.1 C 9.4 g/m*3 21.1 C 6.4 km/h
473 10-05-2015 15:20:00 21.1 C 9.58 g/m*3 21.1 C 8.1 km/h
474 10-05-2015 15:25:00 21.2 C 10.38 g/m*3 21.2 C 6.4 km/h
475 10-05-2015 15:30:00 21.4 C 9.19 g/m*3 21.4 C 9.7 km/h
Sensor: Nr:Datum:Temp:Abs-Feuchte:Windchill:Wind:
Aussen-T/F 476 10-05-2015 15:35:00 21.3 C 8.57 g/m*3 21.3 C 8.1 km/h
477 10-05-2015 15:40:00 21 C 8.79 g/m*3 21 C 9.7 km/h
478 10-05-2015 15:45:00 21.2 C 9.27 g/m*3 21.2 C 4.8 km/h
479 10-05-2015 15:50:00 21.3 C 8.95 g/m*3 21.3 C 4.8 km/h
480 10-05-2015 15:55:00 21.3 C 8.57 g/m*3 21.3 C 11.3 km/h
481 10-05-2015 16:00:00 21.4 C 8.81 g/m*3 21.4 C 6.4 km/h
482 10-05-2015 16:05:00 21.6 C 8.91 g/m*3 21.6 C 8.1 km/h
483 10-05-2015 16:10:00 21.7 C 9.16 g/m*3 21.7 C 8.1 km/h
484 10-05-2015 16:15:00 21.7 C 9.54 g/m*3 21.7 C 6.4 km/h
485 10-05-2015 16:20:00 21.8 C 8.63 g/m*3 21.8 C 6.4 km/h
486 10-05-2015 16:25:00 21.9 C 8.68 g/m*3 21.9 C 8.1 km/h
487 10-05-2015 16:30:00 22.3 C 9.68 g/m*3 22.3 C 6.4 km/h
488 10-05-2015 16:35:00 22.7 C 9.29 g/m*3 22.7 C 6.4 km/h
489 10-05-2015 16:40:00 22.7 C 8.69 g/m*3 22.7 C 9.7 km/h
490 10-05-2015 16:45:00 22.5 C 8.99 g/m*3 22.5 C 8.1 km/h
491 10-05-2015 16:50:00 22.5 C 9.39 g/m*3 22.5 C 11.3 km/h
492 10-05-2015 16:55:00 22.6 C 8.84 g/m*3 22.6 C 8.1 km/h
493 10-05-2015 17:00:00 22.6 C 8.84 g/m*3 22.6 C 8.1 km/h
494 10-05-2015 17:05:00 22.4 C 9.14 g/m*3 22.4 C 8.1 km/h
495 10-05-2015 17:10:00 22.7 C 9.29 g/m*3 22.7 C 4.8 km/h
496 10-05-2015 17:15:00 22.8 C 9.35 g/m*3 22.8 C 8.1 km/h
497 10-05-2015 17:20:00 22.9 C 8.79 g/m*3 22.9 C 8.1 km/h
498 10-05-2015 17:25:00 22.9 C 8.79 g/m*3 22.9 C 6.4 km/h
499 10-05-2015 17:30:00 22.8 C 8.74 g/m*3 22.8 C 3.2 km/h
500 10-05-2015 17:35:00 22.8 C 9.14 g/m*3 22.8 C 4.8 km/h
Sensor: Nr:Datum:Temp:Abs-Feuchte:Windchill:Wind:
Aussen-T/F 501 10-05-2015 17:40:00 22.6 C 8.84 g/m*3 22.6 C 6.4 km/h
502 10-05-2015 17:45:00 22.1 C 8.59 g/m*3 22.1 C 6.4 km/h
503 10-05-2015 17:50:00 21.8 C 9.21 g/m*3 21.8 C 3.2 km/h
504 10-05-2015 17:55:00 21.4 C 8.81 g/m*3 21.4 C 3.2 km/h
505 10-05-2015 18:00:00 21.4 C 9.37 g/m*3 21.4 C 4.8 km/h
506 10-05-2015 18:05:00 21.3 C 9.69 g/m*3 21.3 C 6.4 km/h
507 10-05-2015 18:10:00 21.3 C 8.95 g/m*3 21.3 C 4.8 km/h
508 10-05-2015 18:15:00 21.4 C 8.81 g/m*3 21.4 C 3.2 km/h
509 10-05-2015 18:20:00 21.4 C 8.81 g/m*3 21.4 C 8.1 km/h
510 10-05-2015 18:25:00 21.5 C 8.86 g/m*3 21.5 C 4.8 km/h
511 10-05-2015 18:30:00 21.6 C 9.1 g/m*3 21.6 C 3.2 km/h
512 10-05-2015 18:35:00 21.8 C 9.02 g/m*3 21.8 C 3.2 km/h
513 10-05-2015 18:40:00 21.7 C 8.58 g/m*3 21.7 C 6.4 km/h
514 10-05-2015 18:45:00 21.4 C 9 g/m*3 21.4 C 6.4 km/h
515 10-05-2015 18:50:00 21.4 C 9.19 g/m*3 21.4 C 4.8 km/h
516 10-05-2015 18:55:00 21.3 C 8.76 g/m*3 21.3 C 1.6 km/h
517 10-05-2015 19:00:00 21.2 C 9.08 g/m*3 21.2 C 3.2 km/h
518 10-05-2015 19:05:00 21 C 10.26 g/m*3 21 C 4.8 km/h
519 10-05-2015 19:10:00 20.8 C 9.42 g/m*3 20.8 C 1.6 km/h
520 10-05-2015 19:15:00 20.7 C 10.08 g/m*3 20.7 C 3.2 km/h
521 10-05-2015 19:20:00 20.4 C 10.61 g/m*3 20.4 C 0 km/h
522 10-05-2015 19:25:00 20.2 C 10.84 g/m*3 20.2 C 1.6 km/h
523 10-05-2015 19:30:00 19.9 C 11.17 g/m*3 19.9 C 0 km/h
524 10-05-2015 19:35:00 19.6 C 11.14 g/m*3 19.6 C 0 km/h
525 10-05-2015 19:40:00 19.2 C 11.21 g/m*3 19.2 C 1.6 km/h
Sensor: Nr:Datum:Temp:Abs-Feuchte:Windchill:Wind:
Aussen-T/F 526 10-05-2015 19:45:00 18.9 C 11.18 g/m*3 18.9 C 0 km/h
527 10-05-2015 19:50:00 18.6 C 10.66 g/m*3 18.6 C 0 km/h
528 10-05-2015 19:55:00 18.4 C 11.01 g/m*3 18.4 C 0 km/h
529 10-05-2015 20:00:00 18.1 C 10.97 g/m*3 18.1 C 0 km/h
530 10-05-2015 20:05:00 17.8 C 10.93 g/m*3 17.8 C 0 km/h
531 10-05-2015 20:10:00 17.5 C 10.73 g/m*3 17.5 C 0 km/h
532 10-05-2015 20:15:00 17.2 C 10.69 g/m*3 17.2 C 0 km/h
533 10-05-2015 20:20:00 17.1 C 10.77 g/m*3 17.1 C 0 km/h
534 10-05-2015 20:25:00 16.8 C 10.58 g/m*3 16.8 C 1.6 km/h
535 10-05-2015 20:30:00 16.4 C 10.61 g/m*3 16.4 C 0 km/h
536 10-05-2015 20:35:00 16.2 C 10.48 g/m*3 16.2 C 1.6 km/h
537 10-05-2015 20:40:00 15.9 C 10.43 g/m*3 15.9 C 1.6 km/h
538 10-05-2015 20:45:00 15.6 C 10.37 g/m*3 15.6 C 1.6 km/h
539 10-05-2015 20:50:00 15.4 C 10.25 g/m*3 15.4 C 1.6 km/h
540 10-05-2015 20:55:00 15.2 C 10.12 g/m*3 15.2 C 1.6 km/h
541 10-05-2015 21:00:00 15 C 10 g/m*3 15 C 1.6 km/h
542 10-05-2015 21:05:00 14.8 C 9.88 g/m*3 14.8 C 1.6 km/h
543 10-05-2015 21:10:00 14.6 C 9.76 g/m*3 14.6 C 1.6 km/h
544 10-05-2015 21:15:00 14.4 C 9.77 g/m*3 14.4 C 1.6 km/h
545 10-05-2015 21:20:00 14.3 C 9.71 g/m*3 14.3 C 1.6 km/h
546 10-05-2015 21:25:00 14.3 C 9.71 g/m*3 14.3 C 1.6 km/h
547 10-05-2015 21:30:00 14.2 C 9.77 g/m*3 14.2 C 1.6 km/h
548 10-05-2015 21:35:00 14.1 C 9.71 g/m*3 14.1 C 1.6 km/h
549 10-05-2015 21:40:00 13.9 C 9.59 g/m*3 13.9 C 1.6 km/h
550 10-05-2015 21:45:00 13.9 C 9.59 g/m*3 13.9 C 1.6 km/h
Sensor: Nr:Datum:Temp:Abs-Feuchte:Windchill:Wind:
Aussen-T/F 551 10-05-2015 21:50:00 13.8 C 9.53 g/m*3 13.8 C 1.6 km/h
552 10-05-2015 21:55:00 13.7 C 9.47 g/m*3 13.7 C 1.6 km/h
553 10-05-2015 22:00:00 13.7 C 9.47 g/m*3 13.7 C 0 km/h
554 10-05-2015 22:05:00 13.6 C 9.42 g/m*3 13.6 C 0 km/h
555 10-05-2015 22:10:00 13.6 C 9.3 g/m*3 13.6 C 0 km/h
556 10-05-2015 22:15:00 13.4 C 9.53 g/m*3 13.4 C 1.6 km/h
557 10-05-2015 22:20:00 13.4 C 9.53 g/m*3 13.4 C 0 km/h
558 10-05-2015 22:25:00 13.4 C 9.53 g/m*3 13.4 C 0 km/h
559 10-05-2015 22:30:00 13.3 C 9.24 g/m*3 13.3 C 0 km/h
560 10-05-2015 22:35:00 13.2 C 9.3 g/m*3 13.2 C 0 km/h
561 10-05-2015 22:40:00 13 C 9.19 g/m*3 13 C 0 km/h
562 10-05-2015 22:45:00 12.9 C 9.13 g/m*3 12.9 C 0 km/h
563 10-05-2015 22:50:00 12.8 C 9.3 g/m*3 12.8 C 0 km/h
564 10-05-2015 22:55:00 12.8 C 9.3 g/m*3 12.8 C 0 km/h
565 10-05-2015 23:00:00 12.8 C 9.3 g/m*3 12.8 C 0 km/h
566 10-05-2015 23:05:00 12.7 C 9.24 g/m*3 12.7 C 0 km/h
567 10-05-2015 23:10:00 12.6 C 9.07 g/m*3 12.6 C 1.6 km/h
568 10-05-2015 23:15:00 12.6 C 9.07 g/m*3 12.6 C 0 km/h
569 10-05-2015 23:20:00 12.6 C 9.18 g/m*3 12.6 C 0 km/h
570 10-05-2015 23:25:00 12.4 C 9.07 g/m*3 12.4 C 0 km/h
571 10-05-2015 23:30:00 12.4 C 9.29 g/m*3 12.4 C 0 km/h
572 10-05-2015 23:35:00 12.3 C 9.12 g/m*3 12.3 C 0 km/h
573 10-05-2015 23:40:00 12.3 C 9.12 g/m*3 12.3 C 0 km/h
574 10-05-2015 23:45:00 12.3 C 9.12 g/m*3 12.3 C 0 km/h
575 10-05-2015 23:50:00 12.3 C 9.12 g/m*3 12.3 C 0 km/h
Sensor: Nr:Datum:Temp:Abs-Feuchte:Windchill:Wind:
Aussen-T/F 576 10-05-2015 23:55:00 12.2 C 9.06 g/m*3 12.2 C 1.6 km/h
577 11-05-2015 00:00:00 12.1 C 9.01 g/m*3 12.1 C 0 km/h
578 11-05-2015 00:05:00 11.9 C 9 g/m*3 11.9 C 1.6 km/h
579 11-05-2015 00:10:00 11.8 C 9.05 g/m*3 11.8 C 1.6 km/h
580 11-05-2015 00:15:00 11.6 C 8.94 g/m*3 11.6 C 0 km/h
581 11-05-2015 00:20:00 11.5 C 8.88 g/m*3 11.5 C 0 km/h
582 11-05-2015 00:25:00 11.4 C 8.93 g/m*3 11.4 C 0 km/h
583 11-05-2015 00:30:00 11.3 C 8.87 g/m*3 11.3 C 0 km/h
584 11-05-2015 00:35:00 11.3 C 8.87 g/m*3 11.3 C 0 km/h
585 11-05-2015 00:40:00 11.3 C 8.87 g/m*3 11.3 C 1.6 km/h
586 11-05-2015 00:45:00 11.3 C 8.98 g/m*3 11.3 C 1.6 km/h
587 11-05-2015 00:50:00 11.2 C 8.82 g/m*3 11.2 C 0 km/h
588 11-05-2015 00:55:00 11.3 C 8.98 g/m*3 11.3 C 0 km/h
589 11-05-2015 01:00:00 11.3 C 8.98 g/m*3 11.3 C 0 km/h
590 11-05-2015 01:05:00 11.3 C 8.98 g/m*3 11.3 C 0 km/h
591 11-05-2015 01:10:00 11.3 C 8.98 g/m*3 11.3 C 0 km/h
592 11-05-2015 01:15:00 11.3 C 8.98 g/m*3 11.3 C 0 km/h
593 11-05-2015 01:20:00 11.4 C 9.03 g/m*3 11.4 C 0 km/h
594 11-05-2015 01:25:00 11.4 C 8.93 g/m*3 11.4 C 0 km/h
595 11-05-2015 01:30:00 11.4 C 8.93 g/m*3 11.4 C 0 km/h
596 11-05-2015 01:35:00 11.4 C 8.93 g/m*3 11.4 C 0 km/h
597 11-05-2015 01:40:00 11.4 C 8.83 g/m*3 11.4 C 0 km/h
598 11-05-2015 01:45:00 11.4 C 8.83 g/m*3 11.4 C 0 km/h
599 11-05-2015 01:50:00 11.4 C 8.83 g/m*3 11.4 C 0 km/h
600 11-05-2015 01:55:00 11.3 C 8.77 g/m*3 11.3 C 0 km/h
Sensor: Nr:Datum:Temp:Abs-Feuchte:Windchill:Wind:
Aussen-T/F 601 11-05-2015 02:00:00 11.1 C 8.76 g/m*3 11.1 C 0 km/h
602 11-05-2015 02:05:00 11 C 8.71 g/m*3 11 C 0 km/h
603 11-05-2015 02:10:00 10.9 C 8.75 g/m*3 10.9 C 0 km/h
604 11-05-2015 02:15:00 10.7 C 8.64 g/m*3 10.7 C 0 km/h
605 11-05-2015 02:20:00 10.6 C 8.59 g/m*3 10.6 C 0 km/h
606 11-05-2015 02:25:00 10.6 C 8.69 g/m*3 10.6 C 0 km/h
607 11-05-2015 02:30:00 10.4 C 8.58 g/m*3 10.4 C 0 km/h
608 11-05-2015 02:35:00 10.3 C 8.52 g/m*3 10.3 C 0 km/h
609 11-05-2015 02:40:00 10.3 C 8.52 g/m*3 10.3 C 0 km/h
610 11-05-2015 02:45:00 10.2 C 8.56 g/m*3 10.2 C 0 km/h
611 11-05-2015 02:50:00 10.1 C 8.51 g/m*3 10.1 C 0 km/h
612 11-05-2015 02:55:00 9.9 C 8.4 g/m*3 9.9 C 0 km/h
613 11-05-2015 03:00:00 9.9 C 8.5 g/m*3 9.9 C 0 km/h
614 11-05-2015 03:05:00 9.9 C 8.5 g/m*3 9.9 C 0 km/h
615 11-05-2015 03:10:00 9.8 C 8.44 g/m*3 9.8 C 0 km/h
616 11-05-2015 03:15:00 9.7 C 8.39 g/m*3 9.7 C 0 km/h
617 11-05-2015 03:20:00 9.6 C 8.34 g/m*3 9.6 C 0 km/h
618 11-05-2015 03:25:00 9.6 C 8.34 g/m*3 9.6 C 0 km/h
619 11-05-2015 03:30:00 9.6 C 8.43 g/m*3 9.6 C 0 km/h
620 11-05-2015 03:35:00 9.5 C 8.37 g/m*3 9.5 C 0 km/h
621 11-05-2015 03:40:00 9.5 C 8.37 g/m*3 9.5 C 0 km/h
622 11-05-2015 03:45:00 9.4 C 8.32 g/m*3 9.4 C 0 km/h
623 11-05-2015 03:50:00 9.4 C 8.32 g/m*3 9.4 C 0 km/h
624 11-05-2015 03:55:00 9.4 C 8.32 g/m*3 9.4 C 0 km/h
625 11-05-2015 04:00:00 9.3 C 8.27 g/m*3 9.3 C 0 km/h
Sensor: Nr:Datum:Temp:Abs-Feuchte:Windchill:Wind:
Aussen-T/F 626 11-05-2015 04:05:00 9.3 C 8.27 g/m*3 9.3 C 0 km/h
627 11-05-2015 04:10:00 9.3 C 8.36 g/m*3 9.3 C 0 km/h
628 11-05-2015 04:15:00 9.3 C 8.36 g/m*3 9.3 C 0 km/h
629 11-05-2015 04:20:00 9.2 C 8.3 g/m*3 9.2 C 0 km/h
630 11-05-2015 04:25:00 9.2 C 8.3 g/m*3 9.2 C 0 km/h
631 11-05-2015 04:30:00 9.2 C 8.3 g/m*3 9.2 C 0 km/h
632 11-05-2015 04:35:00 9.2 C 8.3 g/m*3 9.2 C 0 km/h
633 11-05-2015 04:40:00 9.2 C 8.3 g/m*3 9.2 C 0 km/h
634 11-05-2015 04:45:00 9.1 C 8.25 g/m*3 9.1 C 0 km/h
635 11-05-2015 04:50:00 9.1 C 8.25 g/m*3 9.1 C 0 km/h
636 11-05-2015 04:55:00 9 C 8.2 g/m*3 9 C 0 km/h
637 11-05-2015 05:00:00 8.9 C 8.15 g/m*3 8.9 C 0 km/h
638 11-05-2015 05:05:00 8.9 C 8.15 g/m*3 8.9 C 0 km/h
639 11-05-2015 05:10:00 8.8 C 8.09 g/m*3 8.8 C 0 km/h
640 11-05-2015 05:15:00 8.7 C 8.04 g/m*3 8.7 C 0 km/h
641 11-05-2015 05:20:00 8.7 C 8.04 g/m*3 8.7 C 0 km/h
642 11-05-2015 05:25:00 8.7 C 8.13 g/m*3 8.7 C 0 km/h
643 11-05-2015 05:30:00 8.7 C 8.13 g/m*3 8.7 C 0 km/h
644 11-05-2015 05:35:00 8.7 C 8.13 g/m*3 8.7 C 0 km/h
645 11-05-2015 05:40:00 8.7 C 8.13 g/m*3 8.7 C 0 km/h
646 11-05-2015 05:45:00 8.6 C 8.08 g/m*3 8.6 C 0 km/h
647 11-05-2015 05:50:00 8.6 C 8.08 g/m*3 8.6 C 0 km/h
648 11-05-2015 05:55:00 8.6 C 8.08 g/m*3 8.6 C 0 km/h
649 11-05-2015 06:00:00 8.5 C 8.03 g/m*3 8.5 C 0 km/h
650 11-05-2015 06:05:00 8.6 C 8.08 g/m*3 8.6 C 0 km/h
Sensor: Nr:Datum:Temp:Abs-Feuchte:Windchill:Wind:
Aussen-T/F 651 11-05-2015 06:10:00 8.6 C 8.08 g/m*3 8.6 C 0 km/h
652 11-05-2015 06:15:00 8.6 C 8.08 g/m*3 8.6 C 0 km/h
653 11-05-2015 06:20:00 8.7 C 8.13 g/m*3 8.7 C 0 km/h
654 11-05-2015 06:25:00 8.7 C 8.13 g/m*3 8.7 C 0 km/h
655 11-05-2015 06:30:00 8.7 C 8.13 g/m*3 8.7 C 0 km/h
656 11-05-2015 06:35:00 8.8 C 8.18 g/m*3 8.8 C 0 km/h
657 11-05-2015 06:40:00 8.8 C 8.18 g/m*3 8.8 C 0 km/h
658 11-05-2015 06:45:00 8.9 C 8.32 g/m*3 8.9 C 0 km/h
659 11-05-2015 06:50:00 9.1 C 8.43 g/m*3 9.1 C 0 km/h
660 11-05-2015 06:55:00 9.2 C 8.48 g/m*3 9.2 C 0 km/h
661 11-05-2015 07:00:00 9.3 C 8.54 g/m*3 9.3 C 0 km/h
662 11-05-2015 07:05:00 9.4 C 8.5 g/m*3 9.4 C 0 km/h
663 11-05-2015 07:10:00 9.6 C 8.61 g/m*3 9.6 C 0 km/h
664 11-05-2015 07:15:00 9.6 C 8.7 g/m*3 9.6 C 0 km/h
665 11-05-2015 07:20:00 9.7 C 8.67 g/m*3 9.7 C 0 km/h
666 11-05-2015 07:25:00 9.7 C 8.67 g/m*3 9.7 C 0 km/h
667 11-05-2015 07:30:00 9.8 C 8.72 g/m*3 9.8 C 0 km/h
668 11-05-2015 07:35:00 9.9 C 8.78 g/m*3 9.9 C 0 km/h
669 11-05-2015 07:40:00 10 C 8.83 g/m*3 10 C 0 km/h
670 11-05-2015 07:45:00 10.1 C 8.89 g/m*3 10.1 C 0 km/h
671 11-05-2015 07:50:00 10.2 C 8.85 g/m*3 10.2 C 0 km/h
672 11-05-2015 07:55:00 10.3 C 8.91 g/m*3 10.3 C 0 km/h
673 11-05-2015 08:00:00 10.6 C 9.08 g/m*3 10.6 C 0 km/h
674 11-05-2015 08:05:00 10.7 C 9.04 g/m*3 10.7 C 0 km/h
675 11-05-2015 08:10:00 10.8 C 9.09 g/m*3 10.8 C 0 km/h
Sensor: Nr:Datum:Temp:Abs-Feuchte:Windchill:Wind:
Aussen-T/F 676 11-05-2015 08:15:00 10.9 C 9.15 g/m*3 10.9 C 0 km/h
677 11-05-2015 08:20:00 11.1 C 9.17 g/m*3 11.1 C 0 km/h
678 11-05-2015 08:25:00 11.2 C 9.22 g/m*3 11.2 C 0 km/h
679 11-05-2015 08:30:00 11.4 C 9.24 g/m*3 11.4 C 0 km/h
680 11-05-2015 08:35:00 11.6 C 9.35 g/m*3 11.6 C 0 km/h
681 11-05-2015 08:40:00 11.8 C 9.47 g/m*3 11.8 C 0 km/h
682 11-05-2015 08:45:00 12 C 9.59 g/m*3 12 C 0 km/h
683 11-05-2015 08:50:00 12.3 C 9.56 g/m*3 12.3 C 0 km/h
684 11-05-2015 08:55:00 12.5 C 9.46 g/m*3 12.5 C 0 km/h
685 11-05-2015 09:00:00 12.6 C 9.51 g/m*3 12.6 C 0 km/h
686 11-05-2015 09:05:00 12.8 C 9.52 g/m*3 12.8 C 0 km/h
687 11-05-2015 09:10:00 12.9 C 9.35 g/m*3 12.9 C 0 km/h
688 11-05-2015 09:15:00 13.1 C 9.47 g/m*3 13.1 C 0 km/h
689 11-05-2015 09:20:00 13.3 C 9.59 g/m*3 13.3 C 0 km/h
690 11-05-2015 09:25:00 13.6 C 9.77 g/m*3 13.6 C 0 km/h
691 11-05-2015 09:30:00 13.7 C 9.71 g/m*3 13.7 C 0 km/h
692 11-05-2015 09:35:00 13.9 C 9.83 g/m*3 13.9 C 0 km/h
693 11-05-2015 09:40:00 14.1 C 9.83 g/m*3 14.1 C 0 km/h
694 11-05-2015 09:45:00 14.2 C 9.77 g/m*3 14.2 C 0 km/h
695 11-05-2015 09:50:00 14.3 C 9.71 g/m*3 14.3 C 0 km/h
696 11-05-2015 09:55:00 14.4 C 10.14 g/m*3 14.4 C 0 km/h
697 11-05-2015 10:00:00 14.6 C 10.39 g/m*3 14.6 C 0 km/h
698 11-05-2015 10:05:00 14.7 C 10.32 g/m*3 14.7 C 0 km/h
699 11-05-2015 10:10:00 14.8 C 10.13 g/m*3 14.8 C 0 km/h
700 11-05-2015 10:15:00 15.2 C 10.25 g/m*3 15.2 C 0 km/h
Sensor: Nr:Datum:Temp:Abs-Feuchte:Windchill:Wind:
Aussen-T/F 701 11-05-2015 10:20:00 15.6 C 10.51 g/m*3 15.6 C 0 km/h
702 11-05-2015 10:25:00 15.9 C 10.97 g/m*3 15.9 C 0 km/h
703 11-05-2015 10:30:00 16.2 C 10.76 g/m*3 16.2 C 0 km/h
704 11-05-2015 10:35:00 16.3 C 11.1 g/m*3 16.3 C 0 km/h
705 11-05-2015 10:40:00 16.4 C 11.17 g/m*3 16.4 C 0 km/h
706 11-05-2015 10:45:00 16.8 C 11.01 g/m*3 16.8 C 0 km/h
707 11-05-2015 10:50:00 17.3 C 10.75 g/m*3 17.3 C 0 km/h
708 11-05-2015 10:55:00 17.9 C 10.84 g/m*3 17.9 C 0 km/h
709 11-05-2015 11:00:00 18.4 C 10.54 g/m*3 18.4 C 0 km/h
710 11-05-2015 11:05:00 18.8 C 10.79 g/m*3 18.8 C 0 km/h
711 11-05-2015 11:10:00 19.2 C 10.72 g/m*3 19.2 C 3.2 km/h
712 11-05-2015 11:15:00 19.4 C 10.84 g/m*3 19.4 C 3.2 km/h
713 11-05-2015 11:20:00 19.6 C 10.97 g/m*3 19.6 C 6.4 km/h
714 11-05-2015 11:25:00 19.8 C 11.1 g/m*3 19.8 C 6.4 km/h
715 11-05-2015 11:30:00 20.1 C 11.13 g/m*3 20.1 C 6.4 km/h
716 11-05-2015 11:35:00 20.3 C 11.43 g/m*3 20.3 C 1.6 km/h
717 11-05-2015 11:40:00 20.4 C 10.97 g/m*3 20.4 C 4.8 km/h
718 11-05-2015 11:45:00 20.6 C 11.28 g/m*3 20.6 C 6.4 km/h
719 11-05-2015 11:50:00 20.6 C 10.38 g/m*3 20.6 C 6.4 km/h
720 11-05-2015 11:55:00 20.7 C 11.34 g/m*3 20.7 C 4.8 km/h
721 11-05-2015 12:00:00 20.9 C 10.93 g/m*3 20.9 C 3.2 km/h
722 11-05-2015 12:05:00 21.3 C 11 g/m*3 21.3 C 1.6 km/h
723 11-05-2015 12:10:00 21.6 C 11.38 g/m*3 21.6 C 4.8 km/h
724 11-05-2015 12:15:00 21.8 C 11.13 g/m*3 21.8 C 6.4 km/h
725 11-05-2015 12:20:00 22 C 11.06 g/m*3 22 C 4.8 km/h
Sensor: Nr:Datum:Temp:Abs-Feuchte:Windchill:Wind:
Aussen-T/F 726 11-05-2015 12:25:00 22.2 C 11.58 g/m*3 22.2 C 3.2 km/h
727 11-05-2015 12:30:00 22.5 C 11.98 g/m*3 22.5 C 12.9 km/h
728 11-05-2015 12:35:00 22.8 C 11.18 g/m*3 22.8 C 12.9 km/h
729 11-05-2015 12:40:00 22.8 C 10.77 g/m*3 22.8 C 1.6 km/h
730 11-05-2015 12:45:00 22.8 C 10.97 g/m*3 22.8 C 3.2 km/h
731 11-05-2015 12:50:00 23.1 C 11.99 g/m*3 23.1 C 6.4 km/h
732 11-05-2015 12:55:00 23.3 C 11.92 g/m*3 23.3 C 4.8 km/h
733 11-05-2015 13:00:00 23.4 C 11.57 g/m*3 23.4 C 6.4 km/h
734 11-05-2015 13:05:00 23.6 C 11.48 g/m*3 23.6 C 9.7 km/h
735 11-05-2015 13:10:00 23.8 C 11.83 g/m*3 23.8 C 4.8 km/h
736 11-05-2015 13:15:00 23.8 C 11.4 g/m*3 23.8 C 8.1 km/h
737 11-05-2015 13:20:00 23.9 C 11.03 g/m*3 23.9 C 6.4 km/h
738 11-05-2015 13:25:00 24 C 11.31 g/m*3 24 C 4.8 km/h
739 11-05-2015 13:30:00 23.9 C 11.47 g/m*3 23.9 C 6.4 km/h
740 11-05-2015 13:35:00 24.1 C 11.82 g/m*3 24.1 C 4.8 km/h
741 11-05-2015 13:40:00 24.2 C 11.22 g/m*3 24.2 C 3.2 km/h
742 11-05-2015 13:45:00 24.3 C 11.06 g/m*3 24.3 C 6.4 km/h
743 11-05-2015 13:50:00 24.3 C 11.51 g/m*3 24.3 C 4.8 km/h
744 11-05-2015 13:55:00 24.2 C 11.66 g/m*3 24.2 C 4.8 km/h
745 11-05-2015 14:00:00 24.3 C 11.73 g/m*3 24.3 C 6.4 km/h
746 11-05-2015 14:05:00 24.3 C 11.29 g/m*3 24.3 C 6.4 km/h
747 11-05-2015 14:10:00 24.2 C 12.98 g/m*3 24.2 C 3.2 km/h
748 11-05-2015 14:15:00 23.9 C 11.47 g/m*3 23.9 C 3.2 km/h
749 11-05-2015 14:20:00 23.9 C 11.47 g/m*3 23.9 C 3.2 km/h
750 11-05-2015 14:25:00 23.9 C 12.33 g/m*3 23.9 C 4.8 km/h
Sensor: Nr:Datum:Temp:Abs-Feuchte:Windchill:Wind:
Aussen-T/F 751 11-05-2015 14:30:00 24.2 C 11.66 g/m*3 24.2 C 4.8 km/h
752 11-05-2015 14:35:00 24.4 C 11.79 g/m*3 24.4 C 6.4 km/h
753 11-05-2015 14:40:00 24.6 C 11.25 g/m*3 24.6 C 11.3 km/h
754 11-05-2015 14:45:00 24.9 C 11.67 g/m*3 24.9 C 8.1 km/h
755 11-05-2015 14:50:00 25.1 C 11.57 g/m*3 25.1 C 8.1 km/h
756 11-05-2015 14:55:00 25.4 C 11.77 g/m*3 25.4 C 8.1 km/h
757 11-05-2015 15:00:00 25.4 C 11.54 g/m*3 25.4 C 8.1 km/h
758 11-05-2015 15:05:00 25.4 C 11.54 g/m*3 25.4 C 6.4 km/h
759 11-05-2015 15:10:00 25.8 C 12.04 g/m*3 25.8 C 6.4 km/h
760 11-05-2015 15:15:00 26.3 C 11.64 g/m*3 26.3 C 4.8 km/h
761 11-05-2015 15:20:00 26.7 C 12.15 g/m*3 26.7 C 8.1 km/h
762 11-05-2015 15:25:00 26.9 C 11.26 g/m*3 26.9 C 4.8 km/h
763 11-05-2015 15:30:00 26.9 C 11.77 g/m*3 26.9 C 8.1 km/h
764 11-05-2015 15:35:00 26.9 C 11.77 g/m*3 26.9 C 6.4 km/h
765 11-05-2015 15:40:00 26.9 C 12.03 g/m*3 26.9 C 9.7 km/h
766 11-05-2015 15:45:00 26.9 C 11.52 g/m*3 26.9 C 3.2 km/h
767 11-05-2015 15:50:00 26.8 C 11.71 g/m*3 26.8 C 11.3 km/h
768 11-05-2015 15:55:00 27 C 11.84 g/m*3 27 C 6.4 km/h
769 11-05-2015 16:00:00 27.2 C 11.19 g/m*3 27.2 C 8.1 km/h
770 11-05-2015 16:05:00 27.3 C 11.77 g/m*3 27.3 C 8.1 km/h
771 11-05-2015 16:10:00 27.5 C 11.64 g/m*3 27.5 C 9.7 km/h
772 11-05-2015 16:15:00 27.2 C 11.19 g/m*3 27.2 C 8.1 km/h
773 11-05-2015 16:20:00 26.9 C 11.26 g/m*3 26.9 C 9.7 km/h
774 11-05-2015 16:25:00 26.5 C 10.76 g/m*3 26.5 C 6.4 km/h
775 11-05-2015 16:30:00 26.1 C 11.75 g/m*3 26.1 C 8.1 km/h
Sensor: Nr:Datum:Temp:Abs-Feuchte:Windchill:Wind:
Aussen-T/F 776 11-05-2015 16:35:00 26 C 10.96 g/m*3 26 C 3.2 km/h
777 11-05-2015 16:40:00 26.1 C 11.51 g/m*3 26.1 C 1.6 km/h
778 11-05-2015 16:45:00 26.4 C 11.2 g/m*3 26.4 C 6.4 km/h
779 11-05-2015 16:50:00 26.3 C 11.39 g/m*3 26.3 C 3.2 km/h
780 11-05-2015 16:55:00 26.2 C 11.08 g/m*3 26.2 C 6.4 km/h
781 11-05-2015 17:00:00 26.1 C 11.51 g/m*3 26.1 C 3.2 km/h
782 11-05-2015 17:05:00 25.7 C 13.65 g/m*3 25.7 C 1.6 km/h
783 11-05-2015 17:10:00 25.2 C 11.64 g/m*3 25.2 C 1.6 km/h
784 11-05-2015 17:15:00 25.1 C 11.57 g/m*3 25.1 C 6.4 km/h
785 11-05-2015 17:20:00 25.3 C 11.47 g/m*3 25.3 C 4.8 km/h
786 11-05-2015 17:25:00 25.7 C 11.97 g/m*3 25.7 C 8.1 km/h
787 11-05-2015 17:30:00 26.1 C 11.75 g/m*3 26.1 C 4.8 km/h
788 11-05-2015 17:35:00 26.3 C 12.13 g/m*3 26.3 C 6.4 km/h
789 11-05-2015 17:40:00 26.7 C 11.9 g/m*3 26.7 C 6.4 km/h
790 11-05-2015 17:45:00 26.9 C 11.26 g/m*3 26.9 C 6.4 km/h
791 11-05-2015 17:50:00 27.1 C 11.9 g/m*3 27.1 C 9.7 km/h
792 11-05-2015 17:55:00 27.2 C 12.23 g/m*3 27.2 C 3.2 km/h
793 11-05-2015 18:00:00 27.2 C 11.45 g/m*3 27.2 C 3.2 km/h
794 11-05-2015 18:05:00 27.1 C 12.68 g/m*3 27.1 C 4.8 km/h
795 11-05-2015 18:10:00 27 C 11.58 g/m*3 27 C 3.2 km/h
796 11-05-2015 18:15:00 26.8 C 12.47 g/m*3 26.8 C 6.4 km/h
797 11-05-2015 18:20:00 26.7 C 12.4 g/m*3 26.7 C 8.1 km/h
798 11-05-2015 18:25:00 26.7 C 11.64 g/m*3 26.7 C 3.2 km/h
799 11-05-2015 18:30:00 26.5 C 13.02 g/m*3 26.5 C 4.8 km/h
800 11-05-2015 18:35:00 26.4 C 13.44 g/m*3 26.4 C 1.6 km/h
Sensor: Nr:Datum:Temp:Abs-Feuchte:Windchill:Wind:
Aussen-T/F 801 11-05-2015 18:40:00 26.2 C 13.05 g/m*3 26.2 C 1.6 km/h
802 11-05-2015 18:45:00 26.1 C 13.46 g/m*3 26.1 C 6.4 km/h
803 11-05-2015 18:50:00 25.6 C 13.33 g/m*3 25.6 C 1.6 km/h
804 11-05-2015 18:55:00 24.9 C 13.73 g/m*3 24.9 C 1.6 km/h
805 11-05-2015 19:00:00 24.4 C 13.58 g/m*3 24.4 C 4.8 km/h
806 11-05-2015 19:05:00 24.1 C 13.57 g/m*3 24.1 C 0 km/h
807 11-05-2015 19:10:00 23.7 C 13.9 g/m*3 23.7 C 0 km/h
808 11-05-2015 19:15:00 23.4 C 13.67 g/m*3 23.4 C 1.6 km/h
809 11-05-2015 19:20:00 23.1 C 13.44 g/m*3 23.1 C 1.6 km/h
810 11-05-2015 19:25:00 22.7 C 13.54 g/m*3 22.7 C 1.6 km/h
811 11-05-2015 19:30:00 22.5 C 13.58 g/m*3 22.5 C 1.6 km/h
812 11-05-2015 19:35:00 22.4 C 13.5 g/m*3 22.4 C 1.6 km/h
813 11-05-2015 19:40:00 22.3 C 13.43 g/m*3 22.3 C 1.6 km/h
814 11-05-2015 19:45:00 21.9 C 13.12 g/m*3 21.9 C 1.6 km/h
815 11-05-2015 19:50:00 21.5 C 13.01 g/m*3 21.5 C 1.6 km/h
816 11-05-2015 19:55:00 21.2 C 12.97 g/m*3 21.2 C 1.6 km/h
817 11-05-2015 20:00:00 20.9 C 12.93 g/m*3 20.9 C 1.6 km/h
818 11-05-2015 20:05:00 20.8 C 12.86 g/m*3 20.8 C 3.2 km/h
819 11-05-2015 20:10:00 20.6 C 12.89 g/m*3 20.6 C 1.6 km/h
820 11-05-2015 20:15:00 20.4 C 12.74 g/m*3 20.4 C 1.6 km/h
821 11-05-2015 20:20:00 20.2 C 12.59 g/m*3 20.2 C 3.2 km/h
822 11-05-2015 20:25:00 20.1 C 12.69 g/m*3 20.1 C 1.6 km/h
823 11-05-2015 20:30:00 19.9 C 12.54 g/m*3 19.9 C 1.6 km/h
824 11-05-2015 20:35:00 19.8 C 12.47 g/m*3 19.8 C 1.6 km/h
825 11-05-2015 20:40:00 19.7 C 12.4 g/m*3 19.7 C 3.2 km/h
Sensor: Nr:Datum:Temp:Abs-Feuchte:Windchill:Wind:
Aussen-T/F 826 11-05-2015 20:45:00 19.6 C 12.32 g/m*3 19.6 C 1.6 km/h
827 11-05-2015 20:50:00 19.4 C 12.18 g/m*3 19.4 C 3.2 km/h
828 11-05-2015 20:55:00 19.4 C 12.18 g/m*3 19.4 C 1.6 km/h
829 11-05-2015 21:00:00 19.3 C 12.11 g/m*3 19.3 C 3.2 km/h
830 11-05-2015 21:05:00 19.2 C 12.04 g/m*3 19.2 C 1.6 km/h
831 11-05-2015 21:10:00 19 C 12.06 g/m*3 19 C 1.6 km/h
832 11-05-2015 21:15:00 18.8 C 12.08 g/m*3 18.8 C 0 km/h
833 11-05-2015 21:20:00 18.7 C 12.01 g/m*3 18.7 C 1.6 km/h
834 11-05-2015 21:25:00 18.6 C 11.94 g/m*3 18.6 C 1.6 km/h
835 11-05-2015 21:30:00 18.5 C 11.87 g/m*3 18.5 C 1.6 km/h
836 11-05-2015 21:35:00 18.4 C 11.95 g/m*3 18.4 C 1.6 km/h
837 11-05-2015 21:40:00 18.4 C 11.8 g/m*3 18.4 C 0 km/h
838 11-05-2015 21:45:00 18.3 C 11.88 g/m*3 18.3 C 1.6 km/h
839 11-05-2015 21:50:00 18.2 C 11.81 g/m*3 18.2 C 0 km/h
840 11-05-2015 21:55:00 18.1 C 11.74 g/m*3 18.1 C 1.6 km/h
841 11-05-2015 22:00:00 17.9 C 11.76 g/m*3 17.9 C 1.6 km/h
842 11-05-2015 22:05:00 17.8 C 11.69 g/m*3 17.8 C 0 km/h
843 11-05-2015 22:10:00 17.6 C 11.7 g/m*3 17.6 C 0 km/h
844 11-05-2015 22:15:00 17.3 C 11.49 g/m*3 17.3 C 0 km/h
845 11-05-2015 22:20:00 17.2 C 11.42 g/m*3 17.2 C 0 km/h
846 11-05-2015 22:25:00 17.2 C 11.57 g/m*3 17.2 C 0 km/h
847 11-05-2015 22:30:00 17.1 C 11.5 g/m*3 17.1 C 0 km/h
848 11-05-2015 22:35:00 16.9 C 11.36 g/m*3 16.9 C 0 km/h
849 11-05-2015 22:40:00 16.8 C 11.29 g/m*3 16.8 C 0 km/h
850 11-05-2015 22:45:00 16.8 C 11.44 g/m*3 16.8 C 0 km/h
Sensor: Nr:Datum:Temp:Abs-Feuchte:Windchill:Wind:
Aussen-T/F 851 11-05-2015 22:50:00 16.7 C 11.23 g/m*3 16.7 C 0 km/h
852 11-05-2015 22:55:00 16.7 C 11.23 g/m*3 16.7 C 0 km/h
853 11-05-2015 23:00:00 16.6 C 11.3 g/m*3 16.6 C 0 km/h
854 11-05-2015 23:05:00 16.5 C 11.23 g/m*3 16.5 C 0 km/h
855 11-05-2015 23:10:00 16.4 C 11.31 g/m*3 16.4 C 0 km/h
856 11-05-2015 23:15:00 16.2 C 11.17 g/m*3 16.2 C 0 km/h
857 11-05-2015 23:20:00 16.1 C 11.24 g/m*3 16.1 C 0 km/h
858 11-05-2015 23:25:00 15.9 C 11.1 g/m*3 15.9 C 0 km/h
859 11-05-2015 23:30:00 15.8 C 11.04 g/m*3 15.8 C 0 km/h
860 11-05-2015 23:35:00 15.7 C 11.11 g/m*3 15.7 C 0 km/h
861 11-05-2015 23:40:00 15.5 C 10.97 g/m*3 15.5 C 0 km/h
862 11-05-2015 23:45:00 15.3 C 10.97 g/m*3 15.3 C 0 km/h
863 11-05-2015 23:50:00 15.3 C 10.97 g/m*3 15.3 C 0 km/h
864 11-05-2015 23:55:00 15.3 C 10.97 g/m*3 15.3 C 0 km/h

Legende:
   Min
   Max


Maximal/Minimal-Werte vom 09.05.2015 - 11.05.2015

Sensor Min Max Avg
Temp
(Aussen-T/F)
8.5 °C
11-05-2015  06:00:00
27.5 °C
11-05-2015  16:10:00
15.72 °C
Abs-Feuchte
(Aussen-T/F)
8.03 g/m*3
11-05-2015  06:00:00
13.9 g/m*3
11-05-2015  19:10:00
9.76 g/m*3
Windchill
(Aussen-T/F)
8.18 C
10-05-2015  07:10:00
27.5 C
11-05-2015  16:10:00
15.69 C

Die Daten stammen von einer Davis Vantage Pro 2 Wetter-Station und werden unter Linux mit der Software wview2wettercgi und aufbereitet. Alle Angaben erfolgen ohne Gewähr für ihre Vollständigkeit oder Richtigkeit.
Kontakt: Rainer Krienke krienke@uni-koblenz.de . Meine Webseiten an der Uni Koblenz oder privat.
Version: $Revision: 0.78 $